Ana Sayfa
METAR-TAF:

METAR-TAF

Havaalanları :

San Marcos Municipal Airport

San Marcos, Teksas, Amerika Birleşik Devletleri

Enlem: 29-53-37N, Boylam: 097-51-53W, yükseklik: 182 m

Güncel hava durumu gözlemi

Rapor saat 06:56 UTC de 16 dakika önce yapıldı.
Rüzgar kuzey/kuzeybatıdan 5 kt
Sıcaklık 8°C
Nem 81%
Basınç 1012 hPa
Görüş mesafesi: 16.1 km
Açık gökyüzü

METAR: KHYI 140656Z AUTO 34005KT 10SM CLR 08/05 A2988 RMK AO2 SLP113 T00780050

Saat: 01:12 (07:12 UTC)


TAF: eksik

4.000'den fazla havaalanı için hava durumu gözlemleri ve tahminleri (METAR ve TAF raporları).

Kullanılabilir istasyonlar harita üzerinde sarı ve kırmızı noktalarla gösterilir.

İstasyonun adını görmek için fareyi noktanın üzerinde gezdirin.

Sonrasında hava gözlem ve tahminlerini görmek için tıklayın.

Haritayı değiştirmek için: yaklaştırmak için siyah artı işaretli yeşil düğmeye ve uzaklaştırmak için de eksi işaretli düğmeye hızla tıklayın; bitişik haritalar için yeşil okları kullanın.


METAR-TAF: